Location: Allonne
(49.4086°N, 2.1143°E)
Time: 08:48:43
(UTC+00:00)

Cosmos 1850 Rocket - Pass Details

Date: 03 February 2023
Orbit: 753 x 785 km, 74.0° (Epoch: 23 March)

Event Time Altitude Azimuth Distance (km) Brightness Sun altitude
Rises 18:23:21 0° 176° (S) 3,203 7.3 -15.3°
Reaches altitude 10° 18:25:51 10° 168° (SSE) 2,279 6.4 -15.7°
Maximum altitude 18:30:32 36° 103° (ESE) 1,175 4.5 -16.5°
Enters shadow 18:32:45 25° 57° (ENE) 1,496 5.0 -16.8°
